Погода в Черновском

Россия / Кировская область     58°40′57″N   47°23′28″E
темп.,
°C
ветер,
м/с
пор.,
м/с
влажн.,
%
обл.,
%
осадки,
мм/ч
давл.,
гПа
погр.,
м
10 мая, пн
пн1000:00+12ююв2897100 0.8 1013340
03:00+11юз1197100 1.2 101412
06:00+11с3598100 1.1 1017228
09:00+8с3696100 2.8 1020277
12:00+7с4893100 0.1 1023491
15:00+7с3894100 0.6 1025419
18:00+7с4994100 0.1 1026435
21:00+6с289719 0.1 1027337
11 мая, вт
вт1100:00+5ссв29976 0.0 1028250
03:00+3ссв289710 0.0 1029196
06:00+6ссв378815 0.0 1030247
09:00+11св345890 0.0 1030545
12:00+16св233627 0.0 1030893
15:00+18всв22325 0.0 10291006
18:00+16св22515 0.0 103024
21:00+10всв11615 0.0 103110
12 мая, ср
ср1200:00+8в11645 0.0 103110
03:00+7св22675 0.0 103111
06:00+11вюв12601 0.0 103180
09:00+17в23430 0.0 1031564
12:00+21вюв23350 0.0 10301058
15:00+22юв23350 0.0 10291210
18:00+19юв115466 0.0 102816
21:00+14в22610 0.0 102811
13 мая, чт
чт1300:00+13в22659 0.0 102920
03:00+12вюв227522 0.0 102928
06:00+15вюв25710 0.0 1028133
09:00+21вюв34531 0.0 1028549
12:00+24юв46416 0.0 10262601
15:00+25вюв464119 0.0 10252116
18:00+21ю375398 0.0 1024213
21:00+16ю2471100 0.0 102467
14 мая, пт
пт1400:00+16ю236778 0.0 102466
03:00+16вюв3871100 0.0 1023167
06:00+17юв3107184 0.1 1022421
09:00+20ююв4962100 0.1 1021636
12:00+24ю594148 0.0 10191669
15:00+24ю5842100 0.0 10191832
18:00+21юз3757100 0.0 1018338
21:00+16зюз22877 0.0 101935